Helicity
79 71 55 56 44 76 80 134 119 95 95 86 72 65 62 65 88 129 128 104 146 180 119 155 174 193 168 157 153 121 100 91 84 105 124 107 124 108 110 124 107 114 96 86 52 41 8 20 23 80 50 49 70 97
92 82 69 61 54 80 79 119 121 106 97 78 57 54 47 55 102 136 134 101 93 141 142 129 114 132 156 156 168 117 133 119 96 105 108 125 114 108 130 90 96 94 109 78 90 55 17 13 -24 -21 12 37 55 71
115 107 87 64 63 92 86 110 112 107 96 75 46 47 36 41 98 159 146 115 118 116 80 140 147 140 137 145 159 170 118 142 130 118 116 110 100 130 109 97 97 86 117 96 43 18 11 8 5 -5 -9 18 31 44
121 129 93 73 71 87 102 103 119 116 81 71 53 37 37 38 69 184 165 133 139 142 134 135 126 148 137 155 172 179 173 169 168 154 136 116 115 117 116 111 129 97 99 98 83 43 -6 -3 2 -0 4 8 6 23
90 132 126 91 79 71 99 101 107 113 97 71 46 36 31 50 117 204 178 136 128 135 166 151 85 126 141 174 218 215 219 201 191 189 173 129 100 98 98 98 77 92 92 93 64 75 82 25 -6 -19 -42 -2 5 9
88 121 159 126 80 87 78 101 95 95 81 66 70 51 29 55 220 163 109 103 139 103 152 149 119 135 147 182 228 261 246 205 185 200 165 112 96 96 86 78 53 55 55 78 55 58 69 45 39 -7 -37 -52 31 26
128 149 171 125 117 80 103 99 86 76 89 87 120 63 36 104 150 141 135 156 160 109 150 141 136 158 157 198 225 264 271 231 170 138 123 111 101 112 107 85 46 41 61 65 53 77 22 42 21 41 25 -6 -40 -46
154 152 149 124 123 97 122 89 84 87 98 122 128 160 171 171 177 148 130 177 160 114 116 147 157 184 181 222 257 286 318 239 177 123 118 122 90 104 93 18 18 53 56 54 66 46 35 32 36 22 23 20 3 -10
156 161 156 127 123 120 130 103 97 101 122 139 145 193 184 173 156 141 154 191 174 103 147 172 200 195 188 211 248 277 299 275 180 142 117 111 96 111 91 59 34 72 73 43 76 68 54 45 30 23 35 35 29 20
179 171 179 156 141 133 144 126 122 135 156 176 190 224 233 178 159 156 124 126 124 68 121 154 157 204 196 211 242 254 256 259 256 155 107 119 89 56 50 52 53 52 97 119 120 59 60 46 53 51 55 50 51 50
201 208 201 164 161 158 159 159 152 212 176 158 190 234 254 209 211 220 210 210 159 186 148 149 157 197 177 231 252 207 269 265 305 190 165 128 97 84 114 70 32 26 90 70 58 52 57 62 62 62 51 56 64 58
215 220 218 184 200 174 166 190 219 213 169 188 212 254 262 255 209 217 153 155 219 229 203 195 175 187 183 179 216 201 307 243 305 234 245 147 125 73 116 128 75 49 57 76 57 55 73 75 81 85 77 61 60 65
219 241 232 203 213 179 192 237 247 259 232 194 226 240 230 199 257 320 328 265 275 244 219 189 220 205 192 150 253 246 322 303 302 264 240 182 146 105 117 145 121 90 76 82 78 82 82 97 107 104 75 70 56 45
208 226 235 217 242 209 211 305 355 263 200 220 232 278 293 290 246 282 257 254 222 252 226 237 245 236 235 219 232 283 304 279 331 299 267 245 198 176 143 155 157 113 76 72 86 114 133 120 102 102 89 79 67 39
192 221 244 250 248 244 330 362 349 254 250 254 306 287 349 259 248 238 238 280 212 206 230 246 259 249 245 236 226 276 280 264 309 309 305 240 192 174 166 153 102 76 62 72 127 166 147 121 95 73 61 59 54 41
211 259 337 296 262 300 304 538 361 293 312 330 443 502 407 340 275 285 264 211 200 194 219 233 265 271 224 220 310 273 449 371 319 304 252 236 212 167 153 134 101 88 98 112 144 143 130 101 76 65 59 46 41 34
380 536 351 345 353 303 444 428 384 356 378 449 480 347 331 314 262 253 233 201 186 206 216 264 287 229 289 277 297 293 364 337 305 275 241 213 169 162 133 107 88 76 87 111 136 125 115 90 73 70 60 51 31 14
496 370 360 439 538 605 486 439 403 387 474 479 492 385 328 307 296 260 212 196 220 209 273 272 331 367 316 359 315 284 336 299 250 220 202 176 143 84 75 72 73 84 88 84 78 75 76 73 67 58 42 27 22 18
442 485 447 654 647 515 379 377 502 519 468 531 483 360 313 264 257 252 222 220 239 253 289 324 288 290 251 280 270 351 337 275 228 191 192 131 88 88 83 73 64 66 59 62 68 67 66 53 46 41 41 44 33 26
369 410 611 503 474 446 443 524 522 537 515 471 394 324 289 259 234 222 232 237 255 292 363 370 298 269 284 246 294 326 277 235 236 197 169 140 93 83 70 79 78 61 59 60 60 45 60 55 54 62 66 60 46 28
674 525 522 526 504 566 576 560 582 503 485 483 367 310 317 255 234 234 231 255 318 394 372 254 253 250 260 312 292 255 218 220 186 181 167 144 113 92 86 91 100 109 93 74 63 62 66 70 71 88 94 90 75 57
891 900 729 618 666 627 675 636 634 521 481 460 362 342 299 246 239 244 260 296 329 281 255 229 217 240 304 269 213 183 167 158 176 160 124 108 107 92 100 110 129 122 111 97 90 76 79 89 100 100 103 91 86 79
925 1029 839 710 632 553 574 451 609 545 515 418 373 286 222 227 233 231 201 214 202 135 186 220 258 259 219 178 166 157 157 188 188 162 134 121 120 119 129 136 129 117 103 101 97 94 98 92 101 115 108 103 95 88
851 673 541 381 483 673 561 652 546 463 425 390 323 282 275 275 273 301 296 290 210 206 218 230 206 188 185 200 191 160 154 158 154 136 123 119 113 112 131 104 95 104 104 95 94 98 102 100 99 105 96 89 85 84
627 534 484 629 577 668 633 512 415 377 338 286 283 262 272 278 292 300 283 223 194 214 216 176 167 178 205 211 173 147 153 141 126 110 106 125 124 99 88 90 96 95 96 92 85 81 84 88 85 82 81 79 80 86
579 463 467 487 481 424 352 305 241 216 243 227 222 296 286 275 298 232 237 199 214 205 179 190 195 195 188 171 147 133 132 131 115 102 92 117 108 89 81 78 86 92 92 78 74 76 76 73 68 66 67 76 89 90
511 509 377 258 259 251 248 242 245 228 208 202 271 280 262 275 213 212 201 203 201 188 190 211 226 196 156 125 111 110 108 102 92 103 99 86 80 76 73 73 66 66 65 65 60 60 59 56 58 57 61 73 68 62
334 282 269 232 259 246 253 237 213 189 202 235 275 223 237 244 270 239 197 169 174 186 220 229 204 165 119 103 103 110 107 93 89 102 111 103 91 79 78 71 67 39 64 48 57 53 46 43 39 40 47 57 56 56
248 205 186 194 201 192 181 177 190 197 205 220 246 236 242 267 220 198 193 192 192 216 209 185 161 125 98 99 119 116 114 135 137 137 128 106 104 97 103 97 85 76 70 62 34 25 41 94 57 53 63 64 67 68
161 151 155 151 154 145 159 166 196 195 196 211 219 219 220 215 210 199 206 214 211 193 164 141 114 112 106 93 101 112 104 114 116 119 131 124 107 124 125 115 98 78 72 72 63 54 94 126 107 76 71 72 70 69
111 119 139 144 136 152 156 147 140 155 184 204 223 237 272 246 233 233 241 200 178 173 165 143 139 121 102 97 98 106 102 94 104 110 111 122 136 133 129 117 91 76 73 77 78 78 85 87 82 81 75 70 63 70
132 146 147 165 155 137 146 184 172 194 218 246 242 221 218 238 253 219 247 182 142 135 121 121 106 91 100 105 102 97 82 103 117 126 133 127 127 143 136 76 66 73 85 94 95 95 95 92 88 77 72 66 67 68
141 154 155 143 132 161 164 170 169 181 218 237 234 197 200 224 246 186 142 142 118 116 130 119 105 84 98 101 99 104 123 112 103 101 89 76 71 75 88 61 61 82 94 101 101 105 97 95 84 82 82 80 76 70
Wind_Speed
25 30 36 40 43 45 47 50 53 53 50 51 52 51 53 54 55 52 47 49 46 49 41 42 44 51 52 53 60 47 46 50 52 60 55 50 49 45 45 41 43 42 41 39 37 37 33 40 33 34 33 34 34 32
22 28 31 35 40 41 42 46 49 51 49 49 49 45 43 43 45 47 48 44 39 41 40 37 35 35 36 36 44 45 45 44 41 46 44 41 42 40 42 46 38 43 37 32 31 30 27 30 28 26 28 31 31 32
19 25 27 32 35 37 40 42 47 50 50 48 47 44 42 42 38 38 42 43 41 43 39 40 40 35 32 32 33 45 40 40 38 33 35 34 37 35 41 37 36 33 32 32 29 27 24 25 26 29 30 31 32 32
15 21 25 28 31 33 35 41 46 50 52 49 46 44 44 41 40 34 38 37 38 42 46 44 35 37 32 30 33 32 33 37 35 33 33 30 32 27 32 30 27 27 32 31 26 18 18 19 24 25 30 35 34 33
11 19 22 25 29 27 29 36 43 52 53 49 46 46 43 42 38 34 33 32 32 40 44 43 35 34 34 34 35 34 33 32 32 34 32 31 27 27 28 29 23 24 26 30 30 27 26 21 22 24 24 37 40 38
10 16 19 25 26 25 26 33 42 49 52 51 50 49 45 38 30 35 39 28 29 34 39 46 36 37 37 37 38 38 35 33 30 30 31 28 25 28 30 28 24 19 19 21 25 24 22 24 24 22 22 26 36 42
11 16 20 21 23 22 22 29 40 47 54 52 53 53 46 35 33 36 36 34 28 31 37 41 39 37 37 39 42 44 38 38 30 30 31 30 30 26 27 27 27 22 19 19 22 26 24 19 21 21 22 21 23 19
14 16 18 17 19 17 24 29 37 47 54 53 53 51 47 41 35 34 32 31 30 32 31 39 41 40 36 46 52 44 50 42 33 28 30 31 31 28 28 16 18 26 24 21 19 19 25 28 21 19 18 19 17 19
14 16 14 13 13 15 22 26 34 46 51 51 44 43 43 41 39 36 33 31 26 22 34 34 45 52 39 46 49 51 49 55 38 35 31 33 31 26 24 27 25 17 21 29 21 20 22 22 19 18 18 17 16 19
16 14 11 11 11 14 22 27 36 45 45 45 45 46 47 41 38 37 39 36 31 25 27 33 35 44 43 48 53 54 49 53 55 40 33 33 29 19 17 16 15 23 15 25 28 27 24 22 22 24 18 21 24 33
18 16 14 12 13 15 21 26 33 38 41 42 46 46 42 42 45 45 42 38 36 37 31 35 35 44 42 51 53 46 50 50 57 47 43 42 37 34 33 33 33 21 16 19 32 37 34 32 29 31 35 34 34 39
20 18 16 14 13 13 17 25 29 33 37 41 45 45 46 47 45 44 42 40 36 43 34 41 41 40 43 41 45 48 50 48 56 43 43 45 34 36 35 33 33 29 20 21 35 40 38 39 37 34 39 46 47 47
23 20 19 17 14 13 18 25 24 30 36 43 44 44 44 45 47 47 52 47 45 38 35 39 45 43 41 40 44 46 51 51 47 48 45 38 38 40 37 33 31 29 26 29 35 40 46 47 44 40 44 48 53 57
25 23 22 18 16 15 19 20 18 30 38 43 46 49 44 47 43 42 46 46 41 40 39 40 43 42 41 45 43 49 46 48 54 56 50 39 41 42 42 37 34 33 30 32 38 44 48 53 54 50 46 49 56 63
28 27 24 19 16 16 17 10 17 29 37 41 41 49 41 40 43 43 41 42 39 35 38 42 44 40 43 43 41 46 52 53 51 55 43 40 41 43 47 49 47 45 44 43 45 48 52 54 54 55 54 53 54 59
27 27 27 20 16 13 12 11 27 31 36 37 37 44 43 50 50 45 44 42 32 34 37 40 45 47 43 40 47 47 55 62 59 43 40 43 47 51 57 58 54 49 45 42 40 41 44 47 50 52 54 55 56 57
25 34 24 21 15 12 8 25 30 36 37 40 45 37 43 53 54 48 42 41 26 34 44 41 46 48 41 48 51 43 56 54 47 44 46 51 57 61 59 56 53 48 44 40 39 38 40 43 45 50 53 52 53 55
32 28 18 16 11 17 28 28 33 38 45 42 50 49 43 46 51 47 39 32 32 36 36 42 38 43 48 56 58 53 47 45 44 49 53 56 56 56 54 53 50 45 40 36 34 35 37 39 43 47 49 52 55 56
28 22 20 17 15 26 31 35 35 52 47 47 46 45 46 49 46 44 38 32 30 32 35 38 44 47 50 48 53 50 49 48 52 52 52 50 51 54 55 51 47 42 37 35 34 34 34 35 36 40 45 48 53 55
17 17 19 15 17 33 39 43 37 47 53 50 45 47 48 50 48 44 38 33 33 36 41 46 47 49 48 49 48 48 47 45 48 53 51 49 51 54 52 50 46 41 37 35 35 33 33 34 33 37 42 49 54 56
14 14 12 21 33 37 41 43 44 46 46 51 45 48 54 50 52 50 47 33 38 43 51 44 47 48 46 50 47 44 45 43 45 46 50 53 52 52 52 50 47 42 38 37 38 38 37 33 33 34 41 47 48 50
26 14 26 31 39 38 48 43 46 42 49 54 53 52 58 60 58 52 43 42 49 49 42 49 51 52 52 48 42 41 42 41 44 45 47 50 54 55 55 54 50 45 41 39 40 38 37 36 33 32 33 39 45 46
14 25 34 38 46 48 57 40 51 51 58 57 53 59 58 56 52 44 50 49 52 44 45 48 48 47 47 41 40 41 42 44 47 49 51 52 53 54 55 54 48 45 45 44 44 42 38 36 35 36 34 36 36 38
22 33 40 44 46 53 46 52 50 53 53 58 63 67 61 56 49 55 65 61 53 49 47 47 46 44 41 40 42 46 47 47 50 52 54 57 59 57 54 51 48 45 44 46 46 44 40 37 36 36 35 34 33 32
39 41 42 51 47 52 56 57 57 58 67 60 62 62 58 50 62 66 69 64 55 50 48 44 41 40 42 44 46 48 47 52 57 61 58 54 51 50 50 50 50 50 46 46 46 45 41 38 38 37 34 32 32 32
50 44 46 46 48 52 52 59 58 59 59 60 59 54 51 60 69 72 66 58 51 48 45 42 43 47 50 49 51 53 54 53 55 54 49 44 50 51 50 50 50 46 48 46 45 43 42 42 41 40 38 38 33 31
53 50 46 40 42 44 50 51 50 56 61 63 61 60 62 73 74 62 52 52 50 47 45 45 48 52 54 54 53 52 52 49 44 43 43 44 44 42 42 43 44 40 45 44 43 42 41 41 40 40 39 38 36 34
47 45 53 46 49 49 58 58 61 64 62 52 54 62 67 65 69 57 54 51 51 46 48 48 52 54 54 53 53 51 46 45 46 41 39 41 42 43 44 43 41 40 42 41 37 37 36 35 35 35 35 33 32 33
47 45 46 52 51 52 55 59 61 55 52 51 64 68 67 57 56 58 57 56 52 54 58 60 60 57 53 47 46 41 41 47 45 41 41 43 44 44 51 49 47 45 42 42 42 39 47 26 27 32 32 32 31 31
50 49 53 54 59 62 56 52 58 58 57 57 58 59 59 59 58 56 60 62 62 62 60 59 57 54 49 45 41 38 37 40 44 44 43 44 42 46 49 48 46 44 40 40 41 41 39 33 32 35 36 35 34 34
51 52 55 57 63 59 60 62 61 60 61 63 63 67 70 63 59 61 64 60 57 56 58 57 53 48 44 42 41 41 40 36 43 47 44 44 43 45 48 48 44 42 37 34 35 35 34 35 37 37 37 36 36 35
54 54 61 67 69 65 66 67 65 67 70 72 73 65 63 66 69 61 63 58 55 56 55 53 50 48 46 43 42 41 42 46 49 51 53 51 49 49 52 49 44 41 36 33 34 33 34 35 37 38 39 39 39 39
61 64 66 71 73 74 69 77 77 79 76 76 74 68 64 63 63 55 50 54 54 53 54 52 48 45 49 48 45 48 54 56 58 59 58 55 54 54 53 48 42 38 35 33 34 34 35 37 40 41 40 38 38 39
Wind_Direction
359 359 358 2 5 10 14 16 16 18 21 24 25 27 28 29 32 36 37 38 38 35 40 43 44 38 39 40 34 35 40 40 41 41 44 47 48 53 52 56 56 59 62 70 79 81 86 312 294 269 274 283 285 292
350 354 356 1 3 8 13 13 14 17 18 19 20 23 23 25 28 34 31 36 41 38 38 44 45 48 49 49 41 41 42 39 44 41 45 47 46 50 49 49 59 57 65 67 84 90 107 99 333 301 297 293 295 288
342 350 354 356 2 6 9 10 12 13 13 13 15 18 19 19 25 29 29 32 37 33 36 38 40 48 58 55 56 38 42 43 42 48 43 47 42 49 43 48 52 59 66 69 70 91 120 122 114 315 299 296 297 297
333 347 349 354 358 3 7 6 7 8 6 7 10 12 13 15 18 28 25 33 39 33 30 33 47 42 55 60 51 47 42 40 41 43 37 40 38 54 43 42 44 58 62 61 69 93 107 140 149 138 312 295 296 299
314 334 343 349 352 0 6 5 4 2 1 3 5 6 8 11 17 25 29 34 44 33 23 24 32 40 46 50 45 43 37 36 36 34 34 31 40 42 41 38 46 69 64 57 57 72 80 98 130 142 159 296 288 292
291 323 333 341 347 352 356 360 359 1 0 360 2 2 2 8 28 26 21 40 43 34 26 22 34 36 41 43 39 34 35 33 37 36 32 37 47 40 36 36 43 71 78 67 52 65 74 77 101 127 156 167 302 291
277 312 323 333 342 350 355 358 357 358 357 358 1 1 6 21 27 20 20 28 36 33 24 19 25 33 36 33 32 30 34 31 35 35 40 38 38 45 37 30 37 46 68 66 54 42 47 72 72 103 107 131 156 158
273 303 313 325 336 346 350 352 355 356 354 356 0 8 18 24 28 18 24 28 31 25 28 20 19 20 31 20 18 28 23 28 35 38 34 32 35 40 34 49 43 33 32 41 56 58 28 19 36 42 45 49 91 134
258 290 297 315 331 340 346 352 354 353 354 356 2 5 6 10 11 15 21 18 20 28 19 19 12 10 23 17 17 19 23 19 33 30 31 30 29 31 39 37 43 53 38 18 32 36 26 21 20 10 2 1 3 359
249 263 277 295 315 331 343 349 351 353 356 0 1 2 1 10 12 11 12 12 24 31 24 12 16 8 12 11 11 11 19 18 16 26 30 25 19 11 4 11 27 38 40 18 15 11 10 9 1 354 357 345 334 322
239 251 266 278 306 320 338 346 350 358 1 2 359 358 2 5 0 3 4 10 15 11 16 13 10 4 11 3 4 14 11 14 12 19 21 20 21 26 25 21 20 30 39 9 351 349 356 358 359 344 332 330 327 319
244 254 265 268 299 306 328 340 350 355 357 357 354 355 357 1 6 7 8 10 7 4 12 6 6 6 5 10 8 10 8 13 7 17 16 14 23 21 18 17 15 18 24 6 338 336 342 340 341 341 331 318 314 313
247 256 260 266 286 296 321 336 347 357 359 356 358 359 2 4 358 359 356 357 357 1 3 1 358 2 7 10 6 6 5 3 9 10 10 13 14 12 9 9 8 7 2 352 340 333 327 326 328 330 325 318 311 305
250 260 266 265 278 298 315 333 353 354 354 351 352 349 354 355 353 354 352 352 356 357 356 356 356 357 360 359 3 -0 3 4 2 1 0 9 9 9 8 5 358 352 344 336 332 328 325 320 318 320 322 319 311 303
255 262 267 265 273 295 320 334 349 348 344 342 347 345 344 348 348 348 346 345 347 354 355 354 354 355 355 355 3 0 0 358 356 353 0 4 2 359 355 350 343 336 331 328 326 324 320 318 317 316 316 316 314 306
258 277 273 256 262 279 312 342 336 339 338 335 334 335 341 340 337 336 336 336 348 351 355 354 351 351 351 358 354 350 351 346 350 355 356 354 350 345 340 338 336 334 332 331 330 329 327 324 321 318 317 314 311 307
246 289 267 243 249 276 295 320 327 323 326 331 331 329 330 335 335 336 338 338 351 348 342 349 345 346 355 348 347 350 343 346 351 351 348 344 341 339 341 340 340 338 336 335 334 333 331 329 326 322 317 317 314 310
272 280 243 220 243 299 308 312 318 321 317 316 322 328 329 333 335 336 338 342 343 338 343 340 348 339 339 338 337 338 339 344 345 343 344 344 346 349 351 350 350 349 348 347 345 342 340 336 329 324 321 319 314 311
268 261 224 210 265 303 306 308 307 313 310 321 323 327 330 333 334 335 335 336 338 344 344 342 337 335 332 332 333 339 340 342 343 346 348 352 355 355 355 356 357 358 358 356 354 351 347 343 339 334 330 327 320 316
261 228 204 215 281 302 304 309 314 312 316 320 326 327 330 332 336 335 334 335 333 335 329 329 327 330 330 335 337 338 341 344 345 345 349 353 356 356 356 356 355 353 352 351 351 352 351 347 344 339 334 327 320 315
289 238 234 285 295 299 304 310 308 315 320 319 327 327 327 331 328 329 328 331 327 326 323 320 321 328 332 334 338 341 342 344 344 346 346 345 349 350 350 351 349 347 344 341 339 339 340 341 342 341 335 330 327 322
280 247 290 293 301 301 302 304 311 317 315 319 323 325 324 324 325 327 333 325 324 323 322 328 331 333 333 333 336 340 344 346 346 346 345 344 344 344 343 343 342 341 339 339 337 336 336 337 339 341 343 338 330 325
265 289 295 295 297 297 303 307 305 309 311 317 323 322 322 324 328 335 328 329 329 328 328 329 331 335 337 342 346 348 348 346 345 344 343 343 342 341 340 341 341 340 337 335 334 334 337 340 341 341 344 343 341 335
298 291 291 293 290 298 307 306 310 312 315 315 316 317 320 323 329 325 323 327 328 332 332 332 335 338 342 343 344 345 347 347 344 343 343 340 339 340 342 343 344 343 340 335 333 333 335 338 339 339 342 344 345 346
292 292 297 295 299 300 301 304 307 310 310 312 314 317 321 327 322 323 324 328 330 332 335 339 342 342 339 340 341 342 345 344 341 339 341 343 345 348 347 345 344 342 342 338 334 332 334 336 335 337 342 344 344 343
286 295 295 295 300 301 304 308 308 309 313 315 316 324 326 323 322 322 327 332 334 336 339 339 339 338 337 339 338 338 340 343 342 341 347 353 350 347 346 345 345 346 344 341 337 334 332 332 331 331 333 334 342 343
290 297 304 312 311 313 314 315 316 316 315 315 318 319 321 320 321 328 335 338 337 339 340 339 337 336 335 335 337 339 341 343 346 347 348 349 352 354 354 352 350 350 346 344 340 338 337 335 335 334 333 334 336 336
304 307 302 307 309 311 310 312 313 314 317 321 322 318 320 321 323 330 333 336 336 338 337 338 337 336 334 335 338 340 345 348 349 354 0 2 2 3 0 358 358 355 352 350 351 349 347 346 346 347 346 347 345 342
312 316 316 313 314 314 313 313 315 318 321 318 317 317 318 324 328 329 331 332 335 332 330 330 331 334 335 338 343 348 351 351 351 351 351 352 353 356 351 350 350 350 350 348 346 347 338 355 353 352 353 352 350 347
317 320 317 317 315 314 318 319 318 321 321 320 321 321 321 324 328 332 330 330 329 329 330 332 333 335 336 339 341 344 347 350 352 350 348 348 348 349 349 348 347 346 348 347 345 344 349 359 360 351 347 345 344 341
324 323 319 318 316 319 320 321 320 320 321 320 319 316 317 320 325 333 335 333 334 335 336 337 339 341 341 342 342 341 342 346 343 342 346 346 343 340 343 344 345 342 341 341 343 345 346 343 342 342 343 341 339 338
326 324 321 318 318 322 323 321 321 320 320 320 320 322 322 321 321 330 338 340 341 341 343 344 344 344 345 343 341 340 337 335 336 335 335 339 337 333 334 339 341 340 339 338 337 338 339 339 339 337 335 333 332 331
323 323 322 320 320 321 324 322 319 318 319 319 320 322 323 323 323 333 340 346 345 344 344 344 344 343 342 340 340 338 334 332 330 330 330 331 330 331 329 334 339 340 340 339 335 333 334 335 333 333 335 336 334 332